Weather History for Melville Hall, Dominica

Change the Weather History Date:

Tuesday, February 25, 2014

  Actual Average Record
Temperature  
Mean Temperature 78 °F -  
Max Temperature 82 °F 81 °F 86 °F (2007)
Min Temperature 73 °F 72 °F 68 °F (1998)
Cooling Degree Days 12    
Growing Degree Days 28 (Base 50)    
Moisture  
Dew Point 68 °F    
Average Humidity 66    
Maximum Humidity 78    
Minimum Humidity 51    
Precipitation  
Precipitation 0.00 in 0.17 in - ()
Sea Level Pressure  
Sea Level Pressure 29.98 in    
Wind  
Wind Speed 9 mph ()    
Max Wind Speed 14 mph    
Max Gust Speed -    
Visibility 8.9 miles    
Events      
Averages and records for this station are not official NWS values.
T = Trace of Precipitation, MM = Missing Value Source: Averaged Metar Reports

Daily Weather History Graph

Daily Weather History Graph

Search for Another Location

Airport:

Trip Planner

Search our weather history database for the weather conditions in past years. The results will help you decide how hot, cold, wet, or windy it might be!

Date:

Astronomy

Feb. 25, 2014 Rise Set
Actual Time 6:24 AM AST 6:11 PM AST
Civil Twilight 6:03 AM AST 6:33 PM AST
Nautical Twilight 5:38 AM AST 6:58 PM AST
Astronomical Twilight 5:13 AM AST 7:23 PM AST
Moon 2:50 AM AST (2/25) 2:35 PM AST (2/25)
Length of Visible Light 12h 30m
Length of Day
11h 46m
Waning Crescent, 19% of the Moon is Illuminated
Feb 25
Waning Crescent
Mar 1
New
Mar 8
First Quarter
Mar 16
Full
Mar 23
Last Quarter

Hourly Weather History & Observations

Time (AST) Temp. Heat Index Dew Point Humidity Pressure Visibility Wind Dir Wind Speed Gust Speed Precip Events Conditions
6:00 AM 75.2 °F - 66.2 °F 73% 29.98 in 6.2 mi East 9.2 mph - N/A   Partly Cloudy
7:00 AM 77.0 °F - 68.0 °F 74% 30.01 in 6.2 mi East 8.1 mph - N/A   Scattered Clouds
8:00 AM 78 °F - 67 °F 62% 30.04 in 16 mi East 10.4 mph - -   Partly Cloudy
8:00 AM 77.0 °F - 68.0 °F 74% 30.04 in 6.2 mi East 10.4 mph - N/A   Mostly Cloudy
9:00 AM 78.8 °F - 69.8 °F 74% 30.04 in 6.2 mi East 10.4 mph - N/A   Scattered Clouds
10:00 AM 82.4 °F 85.4 °F 68.0 °F 62% 30.06 in 6.2 mi ESE 9.2 mph - N/A   Scattered Clouds
11:00 AM 82 °F - 67 °F 51% 30.05 in 17 mi ESE 11.5 mph - -   Partly Cloudy
11:00 AM 82.4 °F 84.6 °F 66.2 °F 58% 30.04 in 6.2 mi East 11.5 mph - N/A   Scattered Clouds
12:00 PM 82.4 °F 85.4 °F 68.0 °F 62% 30.01 in 6.2 mi ESE 11.5 mph - N/A   Scattered Clouds
1:00 PM 82.4 °F 84.6 °F 66.2 °F 58% 29.98 in 6.2 mi ESE 10.4 mph - N/A   Scattered Clouds
2:00 PM 82 °F - 68 °F 54% 29.97 in 17 mi ESE 10.4 mph - -   Partly Cloudy
2:00 PM 82.4 °F 85.4 °F 68.0 °F 62% 29.95 in 6.2 mi ESE 10.4 mph - N/A   Mostly Cloudy
3:00 PM 80.6 °F 83.2 °F 68.0 °F 65% 29.95 in 6.2 mi ESE 10.4 mph - N/A   Mostly Cloudy
4:00 PM 80.6 °F 83.9 °F 69.8 °F 70% 29.92 in 6.2 mi ESE 13.8 mph - N/A   Mostly Cloudy
5:00 PM 79 °F - 68 °F 61% 29.94 in 17 mi ESE 8.1 mph - -   Mostly Cloudy
5:00 PM 78.8 °F - 68.0 °F 69% 29.92 in 6.2 mi ESE 8.1 mph - N/A   Mostly Cloudy
6:00 PM 77.0 °F - 66.2 °F 69% 29.92 in 6.2 mi ESE 6.9 mph - N/A   Mostly Cloudy
7:00 PM 77.0 °F - 68.0 °F 74% 29.95 in 6.2 mi ESE 5.8 mph - N/A   Mostly Cloudy
8:00 PM 77 °F - 69 °F 71% 29.97 in 17 mi ESE 10.4 mph - -   Partly Cloudy
8:00 PM 77.0 °F - 69.8 °F 78% 29.95 in 6.2 mi ESE 10.4 mph - N/A   Scattered Clouds